Theta_e
316 315 309 309 310 312 312 310 310 310 309 309 309 309 310 310 310 310 314 311 310 312 311 311 315 313 314 314 315 316 322 323 323 322 322 320 320 318 317 318 320 322 320 324 335
316 316 316 308 307 308 308 308 308 308 308 309 309 309 309 309 309 310 311 310 309 310 310 311 313 313 316 317 317 319 322 322 322 322 321 320 320 318 318 319 319 321 320 326 331
316 316 317 316 307 306 307 307 307 308 309 309 309 309 308 308 310 311 311 309 309 310 310 314 313 314 316 317 317 318 320 319 318 317 319 320 319 319 320 320 319 319 322 328 325
315 316 316 317 312 307 308 308 308 308 309 309 309 308 308 308 312 311 310 309 309 310 312 314 312 314 316 317 316 318 316 316 316 315 316 319 319 318 319 319 318 319 320 327 331
315 315 316 317 315 308 308 308 309 309 309 308 308 308 307 310 312 311 310 309 309 310 312 313 313 314 315 316 315 317 316 314 314 314 315 316 317 319 317 318 316 316 318 327 328
315 314 316 316 316 309 309 309 308 308 308 308 308 307 308 311 309 309 312 309 310 311 312 312 313 313 314 314 315 315 315 314 313 313 313 316 315 314 317 315 315 315 317 320 325
315 314 315 315 315 309 309 308 308 308 308 307 307 307 310 311 309 308 311 310 311 312 312 312 312 312 313 314 312 313 314 314 314 314 314 314 315 314 316 312 313 312 314 317 320
315 315 315 315 314 310 309 308 308 307 307 307 307 307 310 309 308 309 311 311 312 311 312 311 312 312 314 312 313 314 315 314 314 314 314 314 316 318 314 313 314 314 314 314 316
315 315 313 315 314 310 309 308 307 307 307 307 307 310 310 308 308 310 311 312 311 310 310 311 312 314 313 315 314 314 314 315 313 313 315 314 315 316 313 313 314 314 314 313 313
315 314 314 314 314 312 308 308 307 307 307 307 310 309 309 310 309 310 310 312 312 311 312 313 313 314 314 314 313 315 314 314 314 313 313 315 315 315 314 314 315 315 315 314 313
315 314 313 313 313 314 308 308 310 312 311 309 309 309 309 310 308 310 310 311 312 312 313 313 314 314 314 314 314 314 314 313 313 313 314 314 314 314 315 314 314 315 316 316 316
315 315 314 313 313 314 308 309 309 310 311 310 309 309 309 311 311 311 310 312 313 314 313 313 313 314 314 314 313 313 313 313 312 312 314 315 315 315 315 315 315 315 316 316 316
315 315 314 314 313 313 310 310 308 308 309 309 309 309 309 310 311 311 311 312 313 313 314 313 313 314 314 313 313 313 313 313 313 312 312 312 313 314 314 313 314 313 313 314 313
315 315 314 314 313 313 312 308 307 307 309 309 309 310 309 311 312 311 311 311 312 313 314 313 311 313 313 312 313 313 312 312 312 313 312 313 312 315 314 312 311 312 311 311 313
316 314 314 313 314 313 310 308 307 308 310 310 309 310 311 311 311 311 310 310 312 312 313 312 311 312 313 313 313 313 312 312 313 313 313 313 312 313 312 313 314 312 312 312 312
315 315 314 313 314 312 308 307 310 311 313 311 309 311 312 311 311 310 310 310 310 311 311 312 309 312 312 310 312 311 312 312 313 313 312 312 313 313 313 313 312 311 312 312 311
314 315 314 313 313 312 309 311 312 314 310 312 309 311 311 311 311 312 311 311 311 310 310 311 310 310 310 311 311 313 313 313 313 313 312 311 313 313 315 310 311 312 313 312 311
314 315 314 312 311 310 309 311 312 309 310 312 310 311 310 311 311 312 312 311 311 310 311 311 310 311 310 312 312 312 313 315 319 316 313 309 312 313 312 310 309 311 313 311 311
314 315 314 313 312 307 311 311 312 311 311 313 311 311 311 311 311 312 312 312 311 311 310 311 311 310 310 311 312 312 312 312 311 308 314 313 312 313 311 312 310 311 311 312 312
311 314 313 312 310 307 312 311 310 311 311 312 312 312 311 311 311 311 311 312 312 312 311 311 311 311 309 310 310 311 312 311 311 321 316 311 313 313 313 312 313 312 312 311 310
309 310 310 312 308 308 311 311 310 311 311 312 312 312 312 311 311 311 311 312 312 312 311 311 312 312 310 311 311 311 311 311 311 313 317 314 312 312 314 313 313 313 313 310 309
305 303 304 310 308 306 309 311 310 311 312 312 313 312 312 312 312 312 311 311 311 311 309 310 312 313 311 311 311 312 311 312 312 313 311 313 314 310 310 314 313 313 312 310 310
301 300 304 307 308 307 310 311 311 311 313 314 314 313 312 312 312 312 312 311 310 311 311 311 314 319 313 312 311 311 311 311 312 313 314 315 313 311 310 314 313 313 311 309 309
301 306 300 303 301 309 310 310 311 311 313 313 314 314 312 312 312 313 312 312 309 311 311 310 314 312 313 312 312 312 312 311 312 313 313 314 313 313 312 313 313 311 310 309 308
300 303 301 305 303 308 310 311 312 312 312 314 315 315 314 314 312 313 312 313 311 310 311 311 314 312 311 312 313 314 313 312 311 312 312 312 312 312 313 313 312 312 311 309 308
300 302 300 300 301 306 309 310 311 312 312 313 314 314 315 315 313 315 313 313 314 312 311 311 315 313 313 312 312 316 314 313 313 312 312 312 312 313 313 313 313 311 311 309 308
299 300 302 301 303 305 306 308 310 311 311 311 312 313 314 315 314 313 313 313 314 312 312 313 312 315 315 314 314 314 312 313 314 313 312 312 312 312 312 314 314 311 310 309 307
Wind_Speed
30 29 34 35 35 34 31 28 27 25 23 21 20 18 17 16 18 17 22 15 12 7 10 13 12 8 9 7 5 3 5 8 8 9 8 12 8 5 4 5 5 5 2 6 15
32 29 29 34 34 33 32 29 27 25 24 22 20 18 17 16 13 17 18 15 14 13 10 13 10 9 7 7 5 6 5 7 4 5 9 15 9 11 7 7 6 7 5 10 13
31 30 29 27 33 33 33 29 28 26 24 22 20 17 16 13 6 15 19 17 13 12 12 12 9 10 8 7 8 6 6 3 3 5 3 11 9 9 6 7 6 10 11 12 13
33 32 29 27 29 33 31 30 28 26 24 22 21 17 15 14 7 13 16 18 16 15 14 15 12 8 8 7 8 7 2 1 4 4 4 8 6 7 9 4 4 5 8 14 15
33 32 29 28 27 31 31 31 28 27 24 22 21 19 16 11 11 6 12 17 19 17 17 15 13 11 8 7 6 8 6 4 4 5 4 6 5 2 8 6 6 6 9 11 13
35 33 31 29 27 31 31 30 27 26 24 22 20 19 15 13 11 10 8 16 18 17 15 15 9 11 8 7 11 4 7 7 5 5 4 4 3 1 6 8 8 9 8 11 14
35 32 32 29 27 31 30 29 27 25 23 21 20 19 11 12 7 13 9 15 17 14 15 15 9 10 5 7 4 10 6 6 6 5 3 2 4 7 7 6 6 8 11 12 14
35 32 32 31 29 31 30 28 25 23 21 20 19 16 6 15 11 12 13 15 16 16 11 14 12 7 2 8 5 6 5 6 7 6 3 4 9 12 7 8 12 13 10 13 15
34 32 32 31 28 30 29 26 24 21 19 18 17 10 8 10 15 13 15 14 16 14 13 13 10 6 6 7 5 6 8 11 5 7 4 8 6 6 5 7 9 9 13 14 13
35 33 33 31 27 29 29 26 22 20 18 16 9 7 8 9 17 15 16 14 9 15 12 9 9 9 10 11 11 10 9 5 10 6 5 8 12 6 7 7 8 10 11 12 14
37 34 33 30 29 30 34 31 17 8 17 7 9 3 11 13 16 16 18 14 10 17 10 15 10 15 16 14 5 3 11 10 3 2 5 11 13 11 13 12 13 14 14 13 12
32 35 32 31 31 32 37 21 24 9 9 9 6 10 7 11 8 14 21 13 12 15 15 6 15 14 13 13 8 6 6 5 4 3 3 4 12 14 16 17 19 17 17 16 13
36 35 35 33 32 31 35 20 20 22 7 9 9 12 7 16 8 21 23 14 16 17 18 15 6 11 11 13 14 12 11 6 1 5 2 5 12 14 11 15 18 14 12 12 12
39 36 34 32 35 37 30 20 21 13 6 8 9 8 11 11 5 17 23 14 7 18 16 15 6 12 14 16 14 13 7 5 5 3 5 1 5 5 7 8 9 11 10 9 7
41 40 39 40 28 40 34 20 19 8 6 15 13 12 15 15 16 11 17 8 13 10 8 6 9 14 16 17 14 5 10 9 5 4 3 7 5 7 3 11 13 12 9 8 7
39 44 45 43 27 38 34 25 16 5 10 11 12 15 15 17 5 10 15 8 4 7 7 3 2 7 3 5 10 14 9 8 5 3 6 13 9 9 8 5 4 10 9 8 8
33 50 50 47 36 37 34 27 5 10 10 9 10 17 22 15 9 14 18 15 12 11 13 4 6 4 8 9 8 9 14 4 5 5 6 3 6 14 2 3 2 9 10 9 9
26 53 54 43 38 42 34 11 8 14 19 5 11 18 22 20 16 14 19 19 23 19 13 13 9 13 10 8 9 16 16 5 7 5 3 2 8 6 0 3 4 5 9 10 10
15 52 39 39 44 54 32 11 12 14 24 10 15 20 18 22 12 15 21 22 21 22 13 14 12 6 8 3 15 12 10 1 5 1 0 6 7 7 8 5 10 10 11 12 11
17 21 38 42 51 55 18 20 18 9 18 18 14 16 24 24 15 20 21 18 20 24 18 6 6 4 3 3 4 8 11 4 5 5 5 7 10 10 8 13 12 13 15 14 12
9 4 16 51 58 45 18 22 15 13 16 19 14 15 19 21 21 22 16 9 25 20 18 6 4 4 6 13 16 5 6 7 4 7 5 5 9 2 8 16 17 18 18 17 15
7 2 11 52 11 12 15 24 17 14 11 15 4 8 16 21 20 20 23 13 23 19 16 11 3 5 11 3 6 16 17 18 8 7 6 5 13 4 0 10 19 20 20 19 18
4 2 12 22 10 16 12 24 16 17 16 12 12 10 8 19 11 21 12 5 16 16 15 11 6 4 5 6 6 8 14 12 16 1 12 7 15 2 4 10 17 21 19 18 18
3 1 3 7 4 17 11 23 13 20 16 11 9 8 10 15 15 15 14 3 8 17 11 24 5 18 19 13 12 10 15 16 14 10 21 15 27 5 9 12 17 20 21 20 19
0 2 3 2 2 9 14 18 10 12 13 16 9 15 12 8 17 7 18 5 5 4 8 12 9 13 18 11 2 9 15 19 20 27 16 28 22 19 13 16 27 26 20 20 21
1 2 4 2 4 1 15 11 23 20 17 16 13 14 10 11 10 6 13 8 6 7 11 7 3 8 3 11 6 3 13 22 26 26 23 28 22 14 16 24 24 29 28 27 24
4 2 3 4 3 2 2 5 15 23 16 17 18 11 11 15 9 2 16 10 10 12 11 9 6 4 8 6 4 6 29 17 21 26 21 24 35 9 10 18 24 28 33 33 28
Wind_Direction
206 205 205 206 205 208 209 209 207 208 205 205 199 202 202 211 216 218 218 234 228 207 204 203 213 211 180 188 202 226 239 198 185 182 141 157 164 157 171 149 163 170 78 129 164
204 202 201 202 203 203 206 206 203 203 202 202 198 197 197 206 221 234 224 230 221 213 201 196 195 202 191 186 178 230 241 198 143 164 164 169 186 163 171 162 184 176 175 147 175
203 200 199 198 197 199 200 203 201 197 197 199 197 196 194 195 223 245 232 221 216 211 195 180 197 186 215 186 180 184 233 131 138 103 131 167 176 174 196 188 186 201 190 175 188
203 199 197 195 193 193 194 196 195 194 193 194 193 195 189 179 206 211 222 215 207 195 188 181 189 195 219 193 187 182 182 202 147 116 117 170 171 196 210 101 142 168 183 184 196
205 202 195 193 191 190 189 189 191 189 190 191 191 189 184 202 238 212 201 199 196 190 189 182 186 199 216 202 188 218 154 137 130 134 126 150 177 178 216 199 175 175 176 197 205
202 198 192 190 189 189 188 187 188 186 187 189 189 187 185 226 235 213 192 189 190 187 180 183 196 207 212 200 205 159 153 142 145 145 118 190 180 181 199 191 211 222 212 208 214
199 196 192 190 189 186 187 185 186 185 186 186 188 186 200 218 232 205 185 184 190 184 187 186 188 184 182 147 142 150 131 150 168 174 112 185 218 228 205 190 193 212 223 219 221
195 196 193 188 190 185 185 184 184 183 182 183 183 184 214 221 226 203 189 186 188 186 178 193 191 168 182 128 124 174 191 186 157 174 159 207 244 207 206 233 242 239 230 225 222
191 194 193 192 190 182 182 179 178 180 179 176 177 171 213 211 200 196 185 183 179 179 184 184 158 163 136 187 167 208 207 209 156 196 150 217 243 189 193 228 239 242 237 228 223
188 189 193 191 184 177 174 172 168 172 168 168 170 190 214 204 191 188 186 166 162 159 146 171 180 188 198 206 208 190 217 212 205 169 202 206 242 174 202 210 239 249 242 230 225
185 185 191 186 179 172 166 151 141 166 178 177 194 184 150 182 185 182 182 167 158 174 175 187 201 206 197 209 269 254 218 206 141 99 230 233 251 247 233 237 247 246 245 234 223
183 184 182 186 180 176 171 168 181 197 168 224 165 208 172 163 155 180 173 171 176 191 188 176 216 207 212 194 196 184 211 202 114 148 222 232 266 264 245 236 241 243 238 240 236
180 180 179 183 178 179 175 177 175 150 160 187 190 198 191 180 183 187 177 192 195 197 193 202 199 188 175 193 198 207 217 207 309 159 209 284 266 244 236 237 241 245 246 246 249
180 177 176 175 180 182 183 170 168 159 174 178 203 212 193 169 201 178 183 178 198 207 204 230 116 177 192 208 204 207 203 180 151 205 257 286 273 201 200 226 216 217 209 200 205
186 175 175 182 180 178 178 172 168 179 205 164 167 174 179 179 135 183 178 183 186 170 192 164 164 178 204 203 200 191 165 168 160 240 318 211 264 260 99 247 221 193 178 176 175
188 182 176 180 183 179 168 163 155 170 221 166 150 172 167 195 146 138 174 181 133 158 229 125 42 199 207 76 197 135 117 106 133 205 252 242 218 248 202 228 131 160 179 171 168
200 184 180 182 173 175 162 154 136 208 143 170 181 177 179 176 163 174 181 190 182 180 192 150 176 151 154 115 139 179 163 166 205 198 245 59 203 257 182 131 200 179 171 167 167
227 201 182 180 170 169 160 167 183 209 190 120 159 171 188 162 193 186 180 197 213 207 184 193 202 184 176 205 170 196 194 189 194 196 196 118 227 249 204 110 159 156 161 164 162
180 182 173 170 170 166 166 193 202 191 199 143 157 169 191 188 174 178 198 204 199 204 211 197 207 123 175 141 150 183 214 316 102 44 202 205 252 253 173 170 181 171 162 167 165
228 183 183 171 168 162 176 204 199 192 191 162 180 190 191 186 189 191 189 211 205 205 222 194 174 199 143 156 233 214 154 161 218 197 231 243 244 247 202 207 190 181 178 173 170
198 223 168 170 163 169 194 199 184 185 188 176 190 191 205 187 197 195 198 203 196 188 200 184 193 134 167 210 183 170 187 217 224 225 225 256 246 259 223 195 192 186 178 174 173
152 155 192 169 160 184 199 189 176 172 195 200 252 188 193 185 196 196 218 199 195 167 191 186 119 168 198 101 269 227 214 198 198 200 246 293 255 127 358 171 180 178 175 173 172
129 149 176 192 167 189 189 198 193 180 185 183 203 195 204 183 191 208 203 146 182 172 183 162 185 134 192 233 199 222 223 238 236 29 216 207 256 111 167 169 177 172 173 174 175
155 99 47 190 265 172 173 189 191 195 193 198 185 173 176 191 213 201 210 122 177 190 202 163 167 210 217 227 159 205 208 210 224 224 236 228 252 157 170 175 179 182 187 182 183
13 119 122 169 281 195 178 175 153 173 208 193 192 208 185 178 200 211 197 130 150 201 182 182 210 219 245 260 175 202 196 204 209 226 219 241 245 240 195 189 195 193 182 187 190
188 185 131 91 148 193 180 192 193 181 172 193 216 193 204 216 192 172 176 177 175 183 193 208 241 207 242 230 230 235 222 209 214 227 232 247 255 241 255 195 191 192 191 194 197
196 231 137 142 122 140 218 176 207 199 202 204 207 222 216 238 256 357 182 200 167 164 184 171 142 121 239 144 96 288 231 221 223 225 223 234 242 218 217 196 195 194 201 200 195